Date String (YYYY-MM-DD hh:mm:ss) UTC,Instrument flags,Ambient pressure (hPa),Sample flow (lpm),Bypass flow (lpm),Sample temperature (°C),Ambient temperature (°C),ASC tube jacket temperature (°C),LED temperature (°C),Box temperature (°C),Sample RH (%),Span deviation,Mass concentration (μg/m³),Mass concentration (μg/m³),Mass concentration (μg/m³)
DateTimeUTC,F1_M11,P_M11,Q1_M11,Q2_M11,T1_M11,T2_M11,T3_M11,T4_M11,T5_M11,U1_M11,ZSPAN_M11,X0_M11,X2_M11,X1_M11
2022-10-28 18:00:00,,0832.8,4.99,0.00,25.6,24.5,00.0,34.3,27.5,12.7,0000.0,0005.78,0003.29,0003.06
2022-10-28 18:01:00,,0832.8,5.01,0.00,25.7,24.5,00.0,34.3,27.6,12.7,0000.0,0006.28,0003.28,0003.06
2022-10-28 18:02:00,,0832.7,5.01,0.00,25.7,24.5,00.0,34.4,27.6,12.6,0000.0,0006.21,0003.28,0003.06
2022-10-28 18:03:00,,0832.7,5.01,0.00,25.7,24.6,00.0,34.4,27.6,13.3,0000.0,0006.39,0003.28,0003.08
2022-10-28 18:04:00,,0832.7,4.98,0.00,25.7,24.6,00.0,34.4,27.6,13.6,0000.0,0006.55,0003.26,0003.08
2022-10-28 18:05:00,,0832.7,5.01,0.00,25.7,24.6,00.0,34.4,27.6,13.3,0000.0,0006.59,0003.27,0003.10
2022-10-28 18:06:00,,0832.8,5.01,0.00,25.8,24.6,00.0,34.4,27.7,13.4,0000.0,0006.60,0003.28,0003.09
2022-10-28 18:07:00,,0832.7,5.00,0.00,25.8,24.7,00.0,34.5,27.7,13.5,0000.0,0006.32,0003.29,0003.09
2022-10-28 18:08:00,,0832.7,5.00,0.00,25.8,24.7,00.0,34.5,27.7,13.6,0000.0,0006.57,0003.34,0003.11
2022-10-28 18:09:00,,0832.8,5.00,0.00,25.8,24.7,00.0,34.5,27.8,13.3,0000.0,0006.65,0003.36,0003.12
2022-10-28 18:10:00,,0832.7,5.00,0.00,25.8,24.7,00.0,34.5,27.8,13.2,0000.0,0006.31,0003.38,0003.14
2022-10-28 18:11:00,,0832.7,5.00,0.00,25.8,24.7,00.0,34.5,27.8,13.6,0000.0,0005.67,0003.38,0003.15
2022-10-28 18:12:00,,0832.7,4.98,0.00,25.9,24.7,00.0,34.6,27.8,13.5,0000.0,0005.17,0003.40,0003.17
2022-10-28 18:13:00,,0832.7,5.00,0.00,25.9,24.7,00.0,34.6,27.8,13.7,0000.0,0005.21,0003.42,0003.19
2022-10-28 18:14:00,,0832.7,5.00,0.00,25.9,24.7,00.0,34.6,27.8,13.5,0000.0,0005.10,0003.44,0003.19
2022-10-28 18:15:00,,0832.7,5.00,0.00,25.9,24.8,00.0,34.6,27.8,13.6,0000.0,0005.87,0003.48,0003.21
2022-10-28 18:16:00,,0832.6,5.01,0.00,25.9,24.8,00.0,34.6,27.9,13.4,0000.0,0006.53,0003.48,0003.22
2022-10-28 18:17:00,,0832.6,5.00,0.00,26.0,24.8,00.0,34.6,27.9,13.4,0000.0,0006.52,0003.50,0003.24
2022-10-28 18:18:00,,0832.6,4.99,0.00,26.0,24.9,00.0,34.7,27.9,13.3,0000.0,0006.54,0003.51,0003.26
2022-10-28 18:19:00,,0832.6,5.00,0.00,26.0,24.9,00.0,34.7,27.9,13.5,0000.0,0006.68,0003.53,0003.28
2022-10-28 18:20:00,,0832.6,5.01,0.00,26.0,24.9,00.0,34.7,27.9,13.8,0000.0,0006.80,0003.54,0003.29
2022-10-28 18:21:00,,0832.6,4.99,0.00,26.0,24.9,00.0,34.7,28.0,13.7,0000.0,0006.85,0003.56,0003.31
2022-10-28 18:22:00,,0832.5,5.00,0.00,26.1,24.9,00.0,34.7,28.0,13.6,0000.0,0006.92,0003.59,0003.33
2022-10-28 18:23:00,,0832.6,5.01,0.00,26.1,25.0,00.0,34.7,28.0,13.5,0000.0,0006.94,0003.61,0003.34
2022-10-28 18:24:00,,0832.6,5.00,0.00,26.1,25.0,00.0,34.8,28.1,13.2,0000.0,0006.95,0003.63,0003.36
2022-10-28 18:25:00,,0832.6,4.99,0.00,26.1,25.0,00.0,34.8,28.1,13.5,0000.0,0007.36,0003.61,0003.36
2022-10-28 18:26:00,,0832.6,5.00,0.00,26.1,25.0,00.0,34.8,28.1,13.8,0000.0,0006.72,0003.58,0003.36
2022-10-28 18:27:00,,0832.5,5.00,0.00,26.1,25.0,00.0,34.8,28.1,13.6,0000.0,0006.54,0003.61,0003.37
2022-10-28 18:28:00,,0832.6,4.99,0.00,26.2,25.0,00.0,34.8,28.1,13.6,0000.0,0007.07,0003.61,0003.37
2022-10-28 18:29:00,,0832.5,5.01,0.00,26.2,25.0,00.0,34.8,28.1,13.3,0000.0,0007.04,0003.61,0003.38
2022-10-28 18:30:00,,0832.5,5.00,0.00,26.2,25.0,00.0,34.9,28.1,13.2,0000.0,0006.85,0003.59,0003.38
2022-10-28 18:31:00,,0832.5,4.99,0.00,26.2,25.0,00.0,34.9,28.1,13.5,0000.0,0006.77,0003.58,0003.38
2022-10-28 18:32:00,,0832.5,5.00,0.00,26.2,25.0,00.0,34.9,28.1,13.1,0000.0,0006.97,0003.59,0003.36
2022-10-28 18:33:00,,0832.4,5.00,0.00,26.2,25.1,00.0,34.9,28.1,13.1,0000.0,0007.17,0003.60,0003.35
2022-10-28 18:34:00,,0832.4,5.00,0.00,26.2,25.1,00.0,34.9,28.1,12.9,0000.0,0007.11,0003.57,0003.34
2022-10-28 18:35:00,,0832.4,5.01,0.00,26.2,25.1,00.0,34.9,28.1,13.2,0000.0,0007.08,0003.54,0003.31
2022-10-28 18:36:00,,0832.3,5.00,0.00,26.3,25.1,00.0,35.0,28.1,12.6,0000.0,0006.49,0003.53,0003.29
2022-10-28 18:37:00,,0832.3,5.00,0.00,26.3,25.1,00.0,35.0,28.1,12.6,0000.0,0006.35,0003.52,0003.26
2022-10-28 18:38:00,,0832.4,4.98,0.00,26.3,25.1,00.0,35.0,28.2,12.7,0000.0,0006.06,0003.49,0003.23
2022-10-28 18:39:00,,0832.4,5.00,0.00,26.3,25.1,00.0,35.0,28.2,12.5,0000.0,0005.43,0003.46,0003.21
2022-10-28 18:40:00,,0832.3,5.00,0.00,26.3,25.1,00.0,35.0,28.3,12.5,0000.0,0005.78,0003.42,0003.18
2022-10-28 18:41:00,,0832.3,5.00,0.00,26.3,25.2,00.0,35.0,28.3,12.6,0000.0,0005.78,0003.41,0003.15
2022-10-28 18:42:00,,0832.3,5.01,0.00,26.3,25.2,00.0,35.0,28.3,12.5,0000.0,0005.80,0003.39,0003.13
2022-10-28 18:43:00,,0832.3,4.97,0.00,26.4,25.2,00.0,35.1,28.3,12.6,0000.0,0005.74,0003.36,0003.10
2022-10-28 18:44:00,,0832.3,5.00,0.00,26.4,25.2,00.0,35.1,28.3,12.4,0000.0,0005.38,0003.31,0003.07
2022-10-28 18:45:00,,0832.3,5.01,0.00,26.4,25.2,00.0,35.1,28.3,12.4,0000.0,0005.39,0003.31,0003.05
2022-10-28 18:46:00,,0832.3,5.00,0.00,26.4,25.3,00.0,35.1,28.3,12.5,0000.0,0005.37,0003.30,0003.04
2022-10-28 18:47:00,,0832.3,4.98,0.00,26.4,25.3,00.0,35.1,28.4,12.3,0000.0,0005.28,0003.27,0003.02
2022-10-28 18:48:00,,0832.2,5.00,0.00,26.5,25.3,00.0,35.1,28.4,12.5,0000.0,0005.05,0003.26,0003.02
2022-10-28 18:49:00,,0832.2,5.00,0.00,26.5,25.3,00.0,35.2,28.4,12.2,0000.0,0004.93,0003.25,0003.01
2022-10-28 18:50:00,,0832.2,5.00,0.00,26.5,25.3,00.0,35.2,28.4,12.3,0000.0,0004.85,0003.23,0003.00
2022-10-28 18:51:00,,0832.2,5.00,0.00,26.5,25.4,00.0,35.2,28.4,12.4,0000.0,0004.58,0003.22,0002.99
2022-10-28 18:52:00,,0832.3,5.00,0.00,26.5,25.4,00.0,35.2,28.4,12.6,0000.0,0004.37,0003.20,0002.96
2022-10-28 18:53:00,,0832.2,5.00,0.00,26.5,25.4,00.0,35.2,28.5,12.2,0000.0,0004.29,0003.19,0002.96
2022-10-28 18:54:00,,0832.2,5.00,0.00,26.6,25.4,00.0,35.2,28.5,12.1,0000.0,0004.40,0003.20,0002.96
2022-10-28 18:55:00,,0832.1,5.00,0.00,26.6,25.4,00.0,35.3,28.5,11.9,0000.0,0004.56,0003.21,0002.96
2022-10-28 18:56:00,,0832.2,5.01,0.00,26.6,25.4,00.0,35.3,28.5,12.0,0000.0,0004.49,0003.19,0002.93
2022-10-28 18:57:00,,0832.1,5.00,0.00,26.6,25.5,00.0,35.3,28.5,12.4,0000.0,0004.52,0003.19,0002.91
2022-10-28 18:58:00,,0832.1,5.00,0.00,26.6,25.5,00.0,35.3,28.5,12.3,0000.0,0005.04,0003.18,0002.89
2022-10-28 18:59:00,,0832.1,4.99,0.00,26.6,25.5,00.0,35.3,28.6,12.1,0000.0,0005.69,0003.20,0002.89
